Time,TemperatureF,DewpointF,PressureIn,WindDirection,WindDirectionDegrees,WindSpeedMPH,WindSpeedGustMPH,Humidity,HourlyPrecipIn,Conditions,Clouds,dailyrainin,SoftwareType,DateUTC
2013-03-20 00:01:00,22.2,12.6,30.32,South,172,0.0,0.0,66,0.00,,,0.00,WeatherCatV1.14B232,2013-03-20 06:01:00,
2013-03-20 00:06:00,21.7,12.8,30.32,South,172,0.0,0.0,68,0.00,,,0.00,WeatherCatV1.14B232,2013-03-20 06:06:00,
2013-03-20 00:11:00,21.8,12.6,30.32,South,170,0.0,0.0,67,0.00,,,0.00,WeatherCatV1.14B232,2013-03-20 06:11:00,
2013-03-20 00:16:00,21.7,13.8,30.32,SE,143,0.0,0.0,71,0.00,,,0.00,WeatherCatV1.14B232,2013-03-20 06:16:00,
2013-03-20 00:21:00,22.1,13.5,30.32,South,170,0.0,1.0,69,0.00,,,0.00,WeatherCatV1.14B232,2013-03-20 06:21:00,
2013-03-20 00:26:00,22.0,14.4,30.32,SW,221,0.0,2.0,72,0.00,,,0.00,WeatherCatV1.14B232,2013-03-20 06:26:00,
2013-03-20 00:31:00,21.9,13.3,30.33,SW,221,0.0,0.0,69,0.00,,,0.00,WeatherCatV1.14B232,2013-03-20 06:31:00,
2013-03-20 00:36:00,21.7,13.1,30.33,SW,221,0.0,0.0,69,0.00,,,0.00,WeatherCatV1.14B232,2013-03-20 06:36:00,
2013-03-20 00:41:00,21.6,13.0,30.32,SW,221,0.0,1.0,69,0.00,,,0.00,WeatherCatV1.14B232,2013-03-20 06:41:00,
2013-03-20 00:46:00,21.5,12.9,30.32,SW,221,0.0,1.0,69,0.00,,,0.00,WeatherCatV1.14B232,2013-03-20 06:46:00,
2013-03-20 00:51:00,21.9,12.7,30.32,NE,56,0.0,1.0,67,0.00,,,0.00,WeatherCatV1.14B232,2013-03-20 06:51:00,
2013-03-20 00:56:00,22.1,12.2,30.32,ENE,61,0.0,0.0,65,0.00,,,0.00,WeatherCatV1.14B232,2013-03-20 06:56:00,
2013-03-20 01:01:00,22.0,13.1,30.33,SW,224,1.0,1.0,68,0.00,,,0.00,WeatherCatV1.14B232,2013-03-20 07:01:00,
2013-03-20 01:06:00,22.0,12.1,30.33,SW,223,2.0,2.0,65,0.00,,,0.00,WeatherCatV1.14B232,2013-03-20 07:06:00,
2013-03-20 01:11:00,22.4,11.0,30.32,South,185,1.0,1.0,61,0.00,,,0.00,WeatherCatV1.14B232,2013-03-20 07:11:00,
2013-03-20 01:16:00,22.4,11.0,30.33,South,174,0.0,0.0,61,0.00,,,0.00,WeatherCatV1.14B232,2013-03-20 07:16:00,
2013-03-20 01:21:00,22.1,10.7,30.33,West,259,0.0,0.0,61,0.00,,,0.00,WeatherCatV1.14B232,2013-03-20 07:21:00,
2013-03-20 01:26:00,21.9,11.6,30.33,ESE,115,1.0,1.0,64,0.00,,,0.00,WeatherCatV1.14B232,2013-03-20 07:26:00,
2013-03-20 01:31:00,21.9,11.3,30.33,South,172,0.0,1.0,63,0.00,,,0.00,WeatherCatV1.14B232,2013-03-20 07:31:00,
2013-03-20 01:36:00,21.5,12.3,30.33,SSE,159,0.0,1.0,67,0.00,,,0.00,WeatherCatV1.14B232,2013-03-20 07:36:00,
2013-03-20 01:41:00,21.3,12.4,30.33,SE,134,2.0,3.0,68,0.00,,,0.00,WeatherCatV1.14B232,2013-03-20 07:41:00,
2013-03-20 01:46:00,21.3,12.4,30.33,South,183,0.0,1.0,68,0.00,,,0.00,WeatherCatV1.14B232,2013-03-20 07:46:00,
2013-03-20 01:51:00,21.0,12.5,30.33,SW,221,0.0,0.0,69,0.00,,,0.00,WeatherCatV1.14B232,2013-03-20 07:51:00,
2013-03-20 01:56:00,20.5,12.0,30.33,SW,221,0.0,0.0,69,0.00,,,0.00,WeatherCatV1.14B232,2013-03-20 07:56:00,
2013-03-20 02:01:00,20.6,12.1,30.33,NW,304,0.0,1.0,69,0.00,,,0.00,WeatherCatV1.14B232,2013-03-20 08:01:00,
2013-03-20 02:06:00,20.6,11.7,30.33,NNW,327,0.0,0.0,68,0.00,,,0.00,WeatherCatV1.14B232,2013-03-20 08:06:00,
2013-03-20 02:11:00,20.4,12.2,30.33,NNW,327,0.0,0.0,70,0.00,,,0.00,WeatherCatV1.14B232,2013-03-20 08:11:00,
2013-03-20 02:16:00,19.9,12.0,30.33,WSW,242,0.0,1.0,71,0.00,,,0.00,WeatherCatV1.14B232,2013-03-20 08:16:00,
2013-03-20 02:21:00,19.6,12.4,30.34,SSE,161,0.0,1.0,73,0.00,,,0.00,WeatherCatV1.14B232,2013-03-20 08:21:00,
2013-03-20 02:26:00,19.6,12.4,30.34,SSE,165,0.0,1.0,73,0.00,,,0.00,WeatherCatV1.14B232,2013-03-20 08:26:00,
2013-03-20 02:31:00,19.5,12.6,30.34,SSE,163,1.0,1.0,74,0.00,,,0.00,WeatherCatV1.14B232,2013-03-20 08:31:00,
2013-03-20 02:36:00,19.5,12.6,30.34,ESE,110,0.0,0.0,74,0.00,,,0.00,WeatherCatV1.14B232,2013-03-20 08:36:00,
2013-03-20 02:41:00,19.4,12.8,30.33,ESE,110,0.0,0.0,75,0.00,,,0.00,WeatherCatV1.14B232,2013-03-20 08:41:00,
2013-03-20 02:46:00,19.4,12.5,30.33,SSW,199,0.0,1.0,74,0.00,,,0.00,WeatherCatV1.14B232,2013-03-20 08:46:00,
2013-03-20 02:51:00,19.4,11.9,30.34,South,172,0.0,0.0,72,0.00,,,0.00,WeatherCatV1.14B232,2013-03-20 08:51:00,
2013-03-20 02:56:00,19.1,11.9,30.34,South,172,0.0,0.0,73,0.00,,,0.00,WeatherCatV1.14B232,2013-03-20 08:56:00,
2013-03-20 03:01:00,19.2,11.7,30.34,East,94,1.0,1.0,72,0.00,,,0.00,WeatherCatV1.14B232,2013-03-20 09:01:00,
2013-03-20 03:06:00,19.4,11.9,30.34,SW,222,2.0,2.0,72,0.00,,,0.00,WeatherCatV1.14B232,2013-03-20 09:06:00,
2013-03-20 03:11:00,19.2,12.3,30.34,South,169,0.0,1.0,74,0.00,,,0.00,WeatherCatV1.14B232,2013-03-20 09:11:00,
2013-03-20 03:16:00,19.0,12.1,30.33,South,186,1.0,1.0,74,0.00,,,0.00,WeatherCatV1.14B232,2013-03-20 09:16:00,
2013-03-20 03:21:00,18.9,12.0,30.34,SSE,165,0.0,0.0,74,0.00,,,0.00,WeatherCatV1.14B232,2013-03-20 09:21:00,
2013-03-20 03:26:00,18.9,11.4,30.34,SSE,165,0.0,0.0,72,0.00,,,0.00,WeatherCatV1.14B232,2013-03-20 09:26:00,
2013-03-20 03:31:00,18.7,11.5,30.33,SSE,165,0.0,0.0,73,0.00,,,0.00,WeatherCatV1.14B232,2013-03-20 09:31:00,
2013-03-20 03:36:00,18.6,11.4,30.33,SSE,165,0.0,0.0,73,0.00,,,0.00,WeatherCatV1.14B232,2013-03-20 09:36:00,
2013-03-20 03:41:00,18.6,12.3,30.33,SSE,165,0.0,0.0,76,0.00,,,0.00,WeatherCatV1.14B232,2013-03-20 09:41:00,
2013-03-20 03:46:00,18.2,11.6,30.33,SSE,165,0.0,0.0,75,0.00,,,0.00,WeatherCatV1.14B232,2013-03-20 09:46:00,
2013-03-20 03:51:00,18.0,12.0,30.33,SSE,165,0.0,0.0,77,0.00,,,0.00,WeatherCatV1.14B232,2013-03-20 09:51:00,
2013-03-20 03:56:00,17.7,11.7,30.33,SSE,165,0.0,0.0,77,0.00,,,0.00,WeatherCatV1.14B232,2013-03-20 09:56:00,
2013-03-20 04:01:00,17.6,11.9,30.33,SSE,165,0.0,0.0,78,0.00,,,0.00,WeatherCatV1.14B232,2013-03-20 10:01:00,
2013-03-20 04:06:00,17.6,11.6,30.33,SSE,165,0.0,0.0,77,0.00,,,0.00,WeatherCatV1.14B232,2013-03-20 10:06:00,
2013-03-20 04:11:00,17.6,12.2,30.33,SSE,165,0.0,0.0,79,0.00,,,0.00,WeatherCatV1.14B232,2013-03-20 10:11:00,
2013-03-20 04:16:00,17.7,12.3,30.33,South,180,0.0,0.0,79,0.00,,,0.00,WeatherCatV1.14B232,2013-03-20 10:16:00,
2013-03-20 04:21:00,17.8,13.3,30.33,SSE,162,0.0,1.0,82,0.00,,,0.00,WeatherCatV1.14B232,2013-03-20 10:21:00,
2013-03-20 04:26:00,17.8,12.7,30.33,SSE,167,1.0,1.0,80,0.00,,,0.00,WeatherCatV1.14B232,2013-03-20 10:26:00,
2013-03-20 04:31:00,18.0,12.6,30.33,ESE,111,0.0,0.0,79,0.00,,,0.00,WeatherCatV1.14B232,2013-03-20 10:31:00,
2013-03-20 04:36:00,18.2,12.5,30.33,ESE,112,0.0,0.0,78,0.00,,,0.00,WeatherCatV1.14B232,2013-03-20 10:36:00,
2013-03-20 04:41:00,18.2,12.5,30.33,West,277,0.0,0.0,78,0.00,,,0.00,WeatherCatV1.14B232,2013-03-20 10:41:00,
2013-03-20 04:46:00,18.0,12.6,30.33,West,277,0.0,0.0,79,0.00,,,0.00,WeatherCatV1.14B232,2013-03-20 10:46:00,
2013-03-20 04:51:00,17.7,12.6,30.32,West,277,0.0,0.0,80,0.00,,,0.00,WeatherCatV1.14B232,2013-03-20 10:51:00,
2013-03-20 04:56:00,17.6,12.8,30.33,West,277,0.0,0.0,81,0.00,,,0.00,WeatherCatV1.14B232,2013-03-20 10:56:00,
2013-03-20 05:01:00,17.6,12.5,30.33,West,277,0.0,0.0,80,0.00,,,0.00,WeatherCatV1.14B232,2013-03-20 11:01:00,
2013-03-20 05:06:00,17.6,12.2,30.33,NE,47,0.0,0.0,79,0.00,,,0.00,WeatherCatV1.14B232,2013-03-20 11:06:00,
2013-03-20 05:11:00,17.8,12.1,30.33,NE,47,0.0,0.0,78,0.00,,,0.00,WeatherCatV1.14B232,2013-03-20 11:11:00,
2013-03-20 05:16:00,17.6,12.5,30.33,SSE,166,0.0,0.0,80,0.00,,,0.00,WeatherCatV1.14B232,2013-03-20 11:16:00,
2013-03-20 05:21:00,17.6,12.8,30.33,SSE,167,0.0,1.0,81,0.00,,,0.00,WeatherCatV1.14B232,2013-03-20 11:21:00,
2013-03-20 05:26:00,17.7,12.6,30.33,SW,217,1.0,1.0,80,0.00,,,0.00,WeatherCatV1.14B232,2013-03-20 11:26:00,
2013-03-20 05:31:00,17.8,12.7,30.33,South,180,1.0,1.0,80,0.00,,,0.00,WeatherCatV1.14B232,2013-03-20 11:31:00,
2013-03-20 05:36:00,17.7,12.0,30.33,SE,146,1.0,1.0,78,0.00,,,0.00,WeatherCatV1.14B232,2013-03-20 11:36:00,
2013-03-20 05:41:00,17.9,11.9,30.33,SE,143,0.0,0.0,77,0.00,,,0.00,WeatherCatV1.14B232,2013-03-20 11:41:00,
2013-03-20 05:46:00,17.8,11.5,30.33,SE,143,0.0,0.0,76,0.00,,,0.00,WeatherCatV1.14B232,2013-03-20 11:46:00,
2013-03-20 05:51:00,17.7,12.0,30.33,SE,144,0.0,0.0,78,0.00,,,0.00,WeatherCatV1.14B232,2013-03-20 11:51:00,
2013-03-20 05:56:00,17.5,11.8,30.33,SE,144,0.0,0.0,78,0.00,,,0.00,WeatherCatV1.14B232,2013-03-20 11:56:00,
2013-03-20 06:01:00,17.6,11.9,30.33,SE,144,0.0,0.0,78,0.00,,,0.00,WeatherCatV1.14B232,2013-03-20 12:01:00,
2013-03-20 06:06:00,17.4,12.6,30.33,SE,144,0.0,0.0,81,0.00,,,0.00,WeatherCatV1.14B232,2013-03-20 12:06:00,
2013-03-20 06:11:00,17.2,12.4,30.33,SE,143,0.0,0.0,81,0.00,,,0.00,WeatherCatV1.14B232,2013-03-20 12:11:00,
2013-03-20 06:16:00,16.6,11.8,30.33,SE,142,0.0,0.0,81,0.00,,,0.00,WeatherCatV1.14B232,2013-03-20 12:16:00,
2013-03-20 06:21:00,16.2,12.0,30.34,SE,143,0.0,0.0,83,0.00,,,0.00,WeatherCatV1.14B232,2013-03-20 12:21:00,
2013-03-20 06:26:00,16.2,12.2,30.34,SE,143,0.0,0.0,84,0.00,,,0.00,WeatherCatV1.14B232,2013-03-20 12:26:00,
2013-03-20 06:31:00,16.6,12.6,30.34,SE,142,0.0,0.0,84,0.00,,,0.00,WeatherCatV1.14B232,2013-03-20 12:31:00,
2013-03-20 06:36:00,16.7,12.2,30.34,SE,143,0.0,0.0,82,0.00,,,0.00,WeatherCatV1.14B232,2013-03-20 12:36:00,
2013-03-20 06:41:00,16.6,12.6,30.34,SW,232,0.0,2.0,84,0.00,,,0.00,WeatherCatV1.14B232,2013-03-20 12:41:00,
2013-03-20 06:46:00,16.5,12.3,30.34,SW,232,0.0,0.0,83,0.00,,,0.00,WeatherCatV1.14B232,2013-03-20 12:46:00,
2013-03-20 06:51:00,16.5,11.7,30.34,SSE,162,0.0,0.0,81,0.00,,,0.00,WeatherCatV1.14B232,2013-03-20 12:51:00,
2013-03-20 06:56:00,16.5,12.0,30.34,East,96,0.0,1.0,82,0.00,,,0.00,WeatherCatV1.14B232,2013-03-20 12:56:00,
2013-03-20 07:01:00,16.5,12.0,30.34,SW,233,1.0,1.0,82,0.00,,,0.00,WeatherCatV1.14B232,2013-03-20 13:01:00,
2013-03-20 07:06:00,16.4,11.9,30.34,WSW,256,0.0,0.0,82,0.00,,,0.00,WeatherCatV1.14B232,2013-03-20 13:06:00,
2013-03-20 07:11:00,16.0,11.8,30.34,WSW,256,0.0,0.0,83,0.00,,,0.00,WeatherCatV1.14B232,2013-03-20 13:11:00,
2013-03-20 07:16:00,16.0,12.0,30.34,WSW,256,0.0,0.0,84,0.00,,,0.00,WeatherCatV1.14B232,2013-03-20 13:16:00,
2013-03-20 07:21:00,16.1,12.1,30.34,WSW,256,0.0,0.0,84,0.00,,,0.00,WeatherCatV1.14B232,2013-03-20 13:21:00,
2013-03-20 07:26:00,16.2,12.5,30.34,WSW,257,0.0,0.0,85,0.00,,,0.00,WeatherCatV1.14B232,2013-03-20 13:26:00,
2013-03-20 07:31:00,16.3,12.6,30.35,WSW,256,0.0,0.0,85,0.00,,,0.00,WeatherCatV1.14B232,2013-03-20 13:31:00,
2013-03-20 07:36:00,16.5,12.8,30.35,WSW,256,0.0,0.0,85,0.00,,,0.00,WeatherCatV1.14B232,2013-03-20 13:36:00,
2013-03-20 07:41:00,17.6,13.1,30.35,WSW,256,0.0,0.0,82,0.00,,,0.00,WeatherCatV1.14B232,2013-03-20 13:41:00,
2013-03-20 07:46:00,18.4,13.0,30.35,WSW,245,0.0,1.0,79,0.00,,,0.00,WeatherCatV1.14B232,2013-03-20 13:46:00,
2013-03-20 07:51:00,19.1,14.0,30.35,SSE,153,1.0,1.0,80,0.00,,,0.00,WeatherCatV1.14B232,2013-03-20 13:51:00,
2013-03-20 07:56:00,19.2,13.8,30.34,ESE,105,0.0,1.0,79,0.00,,,0.00,WeatherCatV1.14B232,2013-03-20 13:56:00,
2013-03-20 08:01:00,19.7,13.7,30.35,SSE,160,0.0,0.0,77,0.00,,,0.00,WeatherCatV1.14B232,2013-03-20 14:01:00,
2013-03-20 08:06:00,20.7,13.4,30.34,SSE,162,1.0,1.0,73,0.00,,,0.00,WeatherCatV1.14B232,2013-03-20 14:06:00,
2013-03-20 08:11:00,21.6,13.4,30.35,SSE,167,1.0,1.0,70,0.00,,,0.00,WeatherCatV1.14B232,2013-03-20 14:11:00,
2013-03-20 08:16:00,22.0,12.7,30.34,East,89,1.0,1.0,67,0.00,,,0.00,WeatherCatV1.14B232,2013-03-20 14:16:00,
2013-03-20 08:21:00,22.1,11.8,30.34,ESE,102,0.0,1.0,64,0.00,,,0.00,WeatherCatV1.14B232,2013-03-20 14:21:00,
2013-03-20 08:26:00,22.5,12.2,30.33,SE,141,1.0,1.0,64,0.00,,,0.00,WeatherCatV1.14B232,2013-03-20 14:26:00,
2013-03-20 08:31:00,22.8,12.1,30.33,SE,138,0.0,0.0,63,0.00,,,0.00,WeatherCatV1.14B232,2013-03-20 14:31:00,
2013-03-20 08:36:00,23.6,12.5,30.33,SE,138,0.0,0.0,62,0.00,,,0.00,WeatherCatV1.14B232,2013-03-20 14:36:00,
2013-03-20 08:41:00,24.5,12.6,30.33,NNW,342,0.0,1.0,60,0.00,,,0.00,WeatherCatV1.14B232,2013-03-20 14:41:00,
2013-03-20 08:46:00,24.8,11.8,30.32,WNW,301,0.0,0.0,57,0.00,,,0.00,WeatherCatV1.14B232,2013-03-20 14:46:00,
2013-03-20 08:51:00,25.0,13.5,30.32,WNW,296,0.0,0.0,61,0.00,,,0.00,WeatherCatV1.14B232,2013-03-20 14:51:00,
2013-03-20 08:56:00,25.5,13.9,30.32,NNW,345,0.0,0.0,61,0.00,,,0.00,WeatherCatV1.14B232,2013-03-20 14:56:00,
2013-03-20 09:01:00,26.1,13.8,30.31,North,9,0.0,1.0,59,0.00,,,0.00,WeatherCatV1.14B232,2013-03-20 15:01:00,
2013-03-20 09:06:00,26.5,13.4,30.32,NE,46,0.0,1.0,57,0.00,,,0.00,WeatherCatV1.14B232,2013-03-20 15:06:00,
2013-03-20 09:11:00,26.9,11.2,30.31,ENE,61,1.0,2.0,51,0.00,,,0.00,WeatherCatV1.14B232,2013-03-20 15:11:00,
2013-03-20 09:16:00,26.8,10.7,30.31,NNE,25,0.0,1.0,50,0.00,,,0.00,WeatherCatV1.14B232,2013-03-20 15:16:00,
2013-03-20 09:21:00,27.1,10.0,30.31,North,1,0.0,1.0,48,0.00,,,0.00,WeatherCatV1.14B232,2013-03-20 15:21:00,
2013-03-20 09:26:00,27.6,10.0,30.30,North,5,0.0,0.0,47,0.00,,,0.00,WeatherCatV1.14B232,2013-03-20 15:26:00,
2013-03-20 09:31:00,28.3,10.2,30.30,ENE,63,0.0,1.0,46,0.00,,,0.00,WeatherCatV1.14B232,2013-03-20 15:31:00,
2013-03-20 09:36:00,28.7,9.6,30.29,WNW,301,0.0,1.0,44,0.00,,,0.00,WeatherCatV1.14B232,2013-03-20 15:36:00,
2013-03-20 09:41:00,29.1,9.4,30.29,North,352,0.0,1.0,43,0.00,,,0.00,WeatherCatV1.14B232,2013-03-20 15:41:00,
2013-03-20 09:46:00,29.5,8.7,30.29,NNE,16,0.0,1.0,41,0.00,,,0.00,WeatherCatV1.14B232,2013-03-20 15:46:00,
2013-03-20 09:51:00,29.8,8.5,30.28,NE,46,0.0,1.0,40,0.00,,,0.00,WeatherCatV1.14B232,2013-03-20 15:51:00,
2013-03-20 09:56:00,30.4,8.4,30.28,ENE,64,1.0,1.0,39,0.00,,,0.00,WeatherCatV1.14B232,2013-03-20 15:56:00,
2013-03-20 10:01:00,30.2,7.1,30.28,ESE,113,0.0,1.0,37,0.00,,,0.00,WeatherCatV1.14B232,2013-03-20 16:01:00,
2013-03-20 10:06:00,30.8,7.0,30.28,NE,52,0.0,1.0,36,0.00,,,0.00,WeatherCatV1.14B232,2013-03-20 16:06:00,
2013-03-20 10:11:00,31.3,7.5,30.28,NNW,327,1.0,3.0,36,0.00,,,0.00,WeatherCatV1.14B232,2013-03-20 16:11:00,
2013-03-20 10:16:00,31.9,7.4,30.28,SSE,148,1.0,2.0,35,0.00,,,0.00,WeatherCatV1.14B232,2013-03-20 16:16:00,
2013-03-20 10:21:00,32.1,8.2,30.27,SSE,149,1.0,1.0,36,0.00,,,0.00,WeatherCatV1.14B232,2013-03-20 16:21:00,
2013-03-20 10:26:00,32.4,8.5,30.27,SSE,150,2.0,3.0,36,0.00,,,0.00,WeatherCatV1.14B232,2013-03-20 16:26:00,
2013-03-20 10:31:00,32.7,7.5,30.27,East,81,1.0,2.0,34,0.00,,,0.00,WeatherCatV1.14B232,2013-03-20 16:31:00,
2013-03-20 10:36:00,33.1,7.8,30.26,NE,39,1.0,1.0,34,0.00,,,0.00,WeatherCatV1.14B232,2013-03-20 16:36:00,
2013-03-20 10:41:00,34.2,8.8,30.26,SSE,150,1.0,1.0,34,0.00,,,0.00,WeatherCatV1.14B232,2013-03-20 16:41:00,
2013-03-20 10:46:00,35.3,9.1,30.26,East,100,0.0,2.0,33,0.00,,,0.00,WeatherCatV1.14B232,2013-03-20 16:46:00,
2013-03-20 10:51:00,36.1,8.4,30.25,NE,44,2.0,2.0,31,0.00,,,0.00,WeatherCatV1.14B232,2013-03-20 16:51:00,
2013-03-20 10:56:00,36.0,7.6,30.25,NNE,22,1.0,2.0,30,0.00,,,0.00,WeatherCatV1.14B232,2013-03-20 16:56:00,
2013-03-20 11:01:00,36.1,8.4,30.25,North,352,1.0,3.0,31,0.00,,,0.00,WeatherCatV1.14B232,2013-03-20 17:01:00,
2013-03-20 11:06:00,36.2,6.3,30.24,NNW,346,0.0,1.0,28,0.00,,,0.00,WeatherCatV1.14B232,2013-03-20 17:06:00,
2013-03-20 11:11:00,36.2,7.0,30.24,WSW,245,1.0,2.0,29,0.00,,,0.00,WeatherCatV1.14B232,2013-03-20 17:11:00,
2013-03-20 11:16:00,36.9,6.1,30.24,North,0,1.0,3.0,27,0.00,,,0.00,WeatherCatV1.14B232,2013-03-20 17:16:00,
2013-03-20 11:21:00,36.7,5.1,30.23,NNE,29,0.0,2.0,26,0.00,,,0.00,WeatherCatV1.14B232,2013-03-20 17:21:00,
2013-03-20 11:26:00,36.9,5.3,30.23,NNW,333,1.0,5.0,26,0.00,,,0.00,WeatherCatV1.14B232,2013-03-20 17:26:00,
2013-03-20 11:31:00,37.4,7.3,30.22,West,277,0.0,3.0,28,0.00,,,0.00,WeatherCatV1.14B232,2013-03-20 17:31:00,
2013-03-20 11:36:00,38.0,7.0,30.22,NNE,30,0.0,1.0,27,0.00,,,0.00,WeatherCatV1.14B232,2013-03-20 17:36:00,
2013-03-20 11:41:00,38.4,4.8,30.21,North,352,1.0,3.0,24,0.00,,,0.00,WeatherCatV1.14B232,2013-03-20 17:41:00,
2013-03-20 11:46:00,38.3,4.7,30.20,NE,44,2.0,4.0,24,0.00,,,0.00,WeatherCatV1.14B232,2013-03-20 17:46:00,
2013-03-20 11:51:00,38.4,5.7,30.20,NW,323,0.0,1.0,25,0.00,,,0.00,WeatherCatV1.14B232,2013-03-20 17:51:00,
2013-03-20 11:56:00,39.4,5.6,30.20,SW,231,0.0,2.0,24,0.00,,,0.00,WeatherCatV1.14B232,2013-03-20 17:56:00,
2013-03-20 12:01:00,40.1,8.0,30.19,East,96,0.0,1.0,26,0.00,,,0.00,WeatherCatV1.14B232,2013-03-20 18:01:00,
2013-03-20 12:06:00,41.0,7.9,30.19,SSW,208,1.0,2.0,25,0.00,,,0.00,WeatherCatV1.14B232,2013-03-20 18:06:00,
2013-03-20 12:11:00,41.3,9.0,30.19,West,270,1.0,1.0,26,0.00,,,0.00,WeatherCatV1.14B232,2013-03-20 18:11:00,
2013-03-20 12:16:00,41.5,8.3,30.18,WSW,249,0.0,2.0,25,0.00,,,0.00,WeatherCatV1.14B232,2013-03-20 18:16:00,
2013-03-20 12:21:00,41.7,7.6,30.18,South,170,0.0,0.0,24,0.00,,,0.00,WeatherCatV1.14B232,2013-03-20 18:21:00,
2013-03-20 12:26:00,41.9,7.8,30.18,South,169,1.0,3.0,24,0.00,,,0.00,WeatherCatV1.14B232,2013-03-20 18:26:00,
2013-03-20 12:31:00,42.0,7.9,30.18,ESE,119,1.0,1.0,24,0.00,,,0.00,WeatherCatV1.14B232,2013-03-20 18:31:00,
2013-03-20 12:36:00,42.2,8.0,30.17,ESE,115,0.0,3.0,24,0.00,,,0.00,WeatherCatV1.14B232,2013-03-20 18:36:00,
2013-03-20 12:41:00,42.9,9.5,30.17,SSE,155,1.0,2.0,25,0.00,,,0.00,WeatherCatV1.14B232,2013-03-20 18:41:00,
2013-03-20 12:46:00,43.8,9.4,30.16,ESE,115,1.0,3.0,24,0.00,,,0.00,WeatherCatV1.14B232,2013-03-20 18:46:00,
2013-03-20 12:52:00,43.4,9.0,30.16,East,89,0.0,2.0,24,0.00,,,0.00,WeatherCatV1.14B232,2013-03-20 18:52:00,
2013-03-20 12:57:00,44.1,8.7,30.16,SE,127,0.0,3.0,23,0.00,,,0.00,WeatherCatV1.14B232,2013-03-20 18:57:00,
2013-03-20 13:01:00,44.0,9.6,30.16,SW,225,2.0,6.0,24,0.00,,,0.00,WeatherCatV1.14B232,2013-03-20 19:01:00,
2013-03-20 13:07:00,44.0,9.6,30.15,WNW,291,0.0,1.0,24,0.00,,,0.00,WeatherCatV1.14B232,2013-03-20 19:07:00,
2013-03-20 13:12:00,44.7,10.2,30.15,SSE,167,0.0,2.0,24,0.00,,,0.00,WeatherCatV1.14B232,2013-03-20 19:12:00,
2013-03-20 13:16:00,45.4,9.8,30.15,North,354,2.0,5.0,23,0.00,,,0.00,WeatherCatV1.14B232,2013-03-20 19:16:00,
2013-03-20 13:21:00,45.1,9.5,30.14,NE,46,1.0,3.0,23,0.00,,,0.00,WeatherCatV1.14B232,2013-03-20 19:21:00,
2013-03-20 13:26:00,45.4,9.8,30.14,NNE,18,1.0,2.0,23,0.00,,,0.00,WeatherCatV1.14B232,2013-03-20 19:26:00,
2013-03-20 13:32:00,46.5,10.7,30.13,SSE,148,0.0,1.0,23,0.00,,,0.00,WeatherCatV1.14B232,2013-03-20 19:32:00,
2013-03-20 13:37:00,47.2,10.3,30.13,NNE,14,0.0,1.0,22,0.00,,,0.00,WeatherCatV1.14B232,2013-03-20 19:37:00,
2013-03-20 13:42:00,47.5,10.6,30.13,SE,146,1.0,1.0,22,0.00,,,0.00,WeatherCatV1.14B232,2013-03-20 19:42:00,
2013-03-20 13:47:00,47.4,10.5,30.12,ENE,70,0.0,2.0,22,0.00,,,0.00,WeatherCatV1.14B232,2013-03-20 19:47:00,
2013-03-20 13:51:00,47.9,10.9,30.12,NE,44,2.0,2.0,22,0.00,,,0.00,WeatherCatV1.14B232,2013-03-20 19:51:00,
2013-03-20 13:56:00,47.9,10.9,30.11,North,4,4.0,4.0,22,0.00,,,0.00,WeatherCatV1.14B232,2013-03-20 19:56:00,
2013-03-20 14:01:00,47.9,10.9,30.11,NNW,332,1.0,3.0,22,0.00,,,0.00,WeatherCatV1.14B232,2013-03-20 20:01:00,
2013-03-20 14:06:00,48.3,11.2,30.11,NNW,330,3.0,4.0,22,0.00,,,0.00,WeatherCatV1.14B232,2013-03-20 20:06:00,
2013-03-20 14:11:00,48.5,11.4,30.10,NNW,344,1.0,5.0,22,0.00,,,0.00,WeatherCatV1.14B232,2013-03-20 20:11:00,
2013-03-20 14:16:00,48.6,11.5,30.10,NNE,13,6.0,6.0,22,0.00,,,0.00,WeatherCatV1.14B232,2013-03-20 20:16:00,
2013-03-20 14:21:00,48.4,11.3,30.09,North,11,8.0,8.0,22,0.00,,,0.00,WeatherCatV1.14B232,2013-03-20 20:21:00,
2013-03-20 14:27:00,48.5,12.4,30.09,NW,314,3.0,6.0,23,0.00,,,0.00,WeatherCatV1.14B232,2013-03-20 20:27:00,
2013-03-20 14:32:00,48.4,12.3,30.09,NNW,335,2.0,8.0,23,0.00,,,0.00,WeatherCatV1.14B232,2013-03-20 20:32:00,
2013-03-20 14:37:00,48.2,12.2,30.09,NW,322,2.0,10.0,23,0.00,,,0.00,WeatherCatV1.14B232,2013-03-20 20:37:00,
2013-03-20 14:42:00,48.2,11.2,30.09,West,281,4.0,6.0,22,0.00,,,0.00,WeatherCatV1.14B232,2013-03-20 20:42:00,
2013-03-20 14:47:00,48.1,12.1,30.08,North,353,3.0,9.0,23,0.00,,,0.00,WeatherCatV1.14B232,2013-03-20 20:47:00,
2013-03-20 14:52:00,48.0,12.0,30.08,North,355,3.0,10.0,23,0.00,,,0.00,WeatherCatV1.14B232,2013-03-20 20:52:00,
2013-03-20 14:57:00,48.2,12.2,30.08,ENE,58,5.0,7.0,23,0.00,,,0.00,WeatherCatV1.14B232,2013-03-20 20:57:00,
2013-03-20 15:02:00,48.5,13.4,30.08,North,349,5.0,8.0,24,0.00,,,0.00,WeatherCatV1.14B232,2013-03-20 21:02:00,
2013-03-20 15:07:00,48.7,12.6,30.08,North,358,2.0,7.0,23,0.00,,,0.00,WeatherCatV1.14B232,2013-03-20 21:07:00,
2013-03-20 15:12:00,48.7,12.6,30.08,North,0,5.0,6.0,23,0.00,,,0.00,WeatherCatV1.14B232,2013-03-20 21:12:00,
2013-03-20 15:17:00,48.6,13.5,30.08,West,259,3.0,4.0,24,0.00,,,0.00,WeatherCatV1.14B232,2013-03-20 21:17:00,
2013-03-20 15:22:00,48.4,13.3,30.08,SSE,168,5.0,8.0,24,0.00,,,0.00,WeatherCatV1.14B232,2013-03-20 21:22:00,
2013-03-20 15:27:00,48.3,15.0,30.08,NNW,342,0.0,4.0,26,0.00,,,0.00,WeatherCatV1.14B232,2013-03-20 21:27:00,
2013-03-20 15:32:00,48.4,15.1,30.08,WSW,257,0.0,4.0,26,0.00,,,0.00,WeatherCatV1.14B232,2013-03-20 21:32:00,
2013-03-20 15:37:00,48.9,23.1,30.08,SW,228,12.0,13.0,36,0.00,,,0.00,WeatherCatV1.14B232,2013-03-20 21:37:00,
2013-03-20 15:42:00,49.4,24.9,30.07,SSE,163,10.0,14.0,38,0.00,,,0.00,WeatherCatV1.14B232,2013-03-20 21:42:00,
2013-03-20 15:47:00,49.2,25.3,30.08,SSW,208,3.0,12.0,39,0.00,,,0.00,WeatherCatV1.14B232,2013-03-20 21:47:00,
2013-03-20 15:52:00,49.1,24.6,30.08,South,176,13.0,15.0,38,0.00,,,0.00,WeatherCatV1.14B232,2013-03-20 21:52:00,
2013-03-20 15:57:00,48.9,25.0,30.08,WSW,242,4.0,10.0,39,0.00,,,0.00,WeatherCatV1.14B232,2013-03-20 21:57:00,
2013-03-20 16:02:00,48.9,25.0,30.08,SW,232,3.0,4.0,39,0.00,,,0.00,WeatherCatV1.14B232,2013-03-20 22:02:00,
2013-03-20 16:07:00,49.0,24.5,30.07,South,172,2.0,3.0,38,0.00,,,0.00,WeatherCatV1.14B232,2013-03-20 22:07:00,
2013-03-20 16:12:00,49.0,24.5,30.07,SSE,162,0.0,3.0,38,0.00,,,0.00,WeatherCatV1.14B232,2013-03-20 22:12:00,
2013-03-20 16:17:00,48.9,24.4,30.07,NW,305,1.0,9.0,38,0.00,,,0.00,WeatherCatV1.14B232,2013-03-20 22:17:00,
2013-03-20 16:22:00,48.8,23.7,30.07,SW,217,3.0,7.0,37,0.00,,,0.00,WeatherCatV1.14B232,2013-03-20 22:22:00,
2013-03-20 16:27:00,48.9,23.8,30.07,South,181,10.0,10.0,37,0.00,,,0.00,WeatherCatV1.14B232,2013-03-20 22:27:00,
2013-03-20 16:32:00,48.9,23.1,30.07,SSE,165,10.0,15.0,36,0.00,,,0.00,WeatherCatV1.14B232,2013-03-20 22:32:00,
2013-03-20 16:37:00,48.8,23.7,30.06,SSW,205,8.0,14.0,37,0.00,,,0.00,WeatherCatV1.14B232,2013-03-20 22:37:00,
2013-03-20 16:42:00,48.7,24.2,30.06,South,172,4.0,10.0,38,0.00,,,0.00,WeatherCatV1.14B232,2013-03-20 22:42:00,
2013-03-20 16:47:00,48.7,24.2,30.06,South,174,8.0,10.0,38,0.00,,,0.00,WeatherCatV1.14B232,2013-03-20 22:47:00,
2013-03-20 16:52:00,48.7,24.2,30.07,SW,228,12.0,13.0,38,0.00,,,0.00,WeatherCatV1.14B232,2013-03-20 22:52:00,
2013-03-20 16:57:00,48.5,25.3,30.07,SW,229,12.0,28.0,40,0.00,,,0.00,WeatherCatV1.14B232,2013-03-20 22:57:00,
2013-03-20 17:02:00,48.3,25.1,30.07,SW,228,5.0,6.0,40,0.00,,,0.00,WeatherCatV1.14B232,2013-03-20 23:02:00,
2013-03-20 17:07:00,48.2,24.4,30.07,SW,221,8.0,12.0,39,0.00,,,0.00,WeatherCatV1.14B232,2013-03-20 23:07:00,
2013-03-20 17:12:00,48.2,24.4,30.07,SW,234,3.0,15.0,39,0.00,,,0.00,WeatherCatV1.14B232,2013-03-20 23:12:00,
2013-03-20 17:17:00,48.3,24.5,30.07,South,184,6.0,12.0,39,0.00,,,0.00,WeatherCatV1.14B232,2013-03-20 23:17:00,
2013-03-20 17:22:00,48.1,26.1,30.08,SW,219,6.0,14.0,42,0.00,,,0.00,WeatherCatV1.14B232,2013-03-20 23:22:00,
2013-03-20 17:27:00,47.6,25.1,30.07,SW,228,1.0,4.0,41,0.00,,,0.00,WeatherCatV1.14B232,2013-03-20 23:27:00,
2013-03-20 17:32:00,47.1,27.4,30.08,West,267,8.0,19.0,46,0.00,,,0.00,WeatherCatV1.14B232,2013-03-20 23:32:00,
2013-03-20 17:37:00,46.3,27.7,30.08,NNE,15,2.0,5.0,48,0.00,,,0.00,WeatherCatV1.14B232,2013-03-20 23:37:00,
2013-03-20 17:42:00,46.0,28.4,30.08,SW,214,7.0,11.0,50,0.00,,,0.00,WeatherCatV1.14B232,2013-03-20 23:42:00,
2013-03-20 17:47:00,45.7,28.6,30.08,West,271,4.0,5.0,51,0.00,,,0.00,WeatherCatV1.14B232,2013-03-20 23:47:00,
2013-03-20 17:52:00,45.2,29.6,30.07,SW,235,1.0,4.0,54,0.00,,,0.00,WeatherCatV1.14B232,2013-03-20 23:52:00,
2013-03-20 17:57:00,45.1,29.0,30.08,WSW,245,7.0,10.0,53,0.00,,,0.00,WeatherCatV1.14B232,2013-03-20 23:57:00,
2013-03-20 18:02:00,45.0,28.9,30.07,SSW,212,6.0,8.0,53,0.00,,,0.00,WeatherCatV1.14B232,2013-03-21 00:02:00,
2013-03-20 18:07:00,44.8,29.2,30.07,SSW,197,2.0,11.0,54,0.00,,,0.00,WeatherCatV1.14B232,2013-03-21 00:07:00,
2013-03-20 18:12:00,44.6,29.0,30.06,South,172,3.0,5.0,54,0.00,,,0.00,WeatherCatV1.14B232,2013-03-21 00:12:00,
2013-03-20 18:17:00,44.5,28.9,30.06,SSE,160,1.0,6.0,54,0.00,,,0.00,WeatherCatV1.14B232,2013-03-21 00:17:00,
2013-03-20 18:22:00,44.5,28.9,30.06,South,176,1.0,4.0,54,0.00,,,0.00,WeatherCatV1.14B232,2013-03-21 00:22:00,
2013-03-20 18:27:00,44.4,29.3,30.06,ESE,116,1.0,2.0,55,0.00,,,0.00,WeatherCatV1.14B232,2013-03-21 00:27:00,
2013-03-20 18:32:00,44.3,29.6,30.06,ESE,122,0.0,1.0,56,0.00,,,0.00,WeatherCatV1.14B232,2013-03-21 00:32:00,
2013-03-20 18:37:00,44.3,29.2,30.06,East,88,0.0,1.0,55,0.00,,,0.00,WeatherCatV1.14B232,2013-03-21 00:37:00,
2013-03-20 18:42:00,44.3,29.6,30.06,East,88,0.0,0.0,56,0.00,,,0.00,WeatherCatV1.14B232,2013-03-21 00:42:00,
2013-03-20 18:47:00,44.3,29.6,30.06,North,6,0.0,2.0,56,0.00,,,0.00,WeatherCatV1.14B232,2013-03-21 00:47:00,
2013-03-20 18:52:00,44.3,29.2,30.05,NNW,342,1.0,2.0,55,0.00,,,0.00,WeatherCatV1.14B232,2013-03-21 00:52:00,
2013-03-20 18:57:00,44.2,29.1,30.05,NNW,342,1.0,2.0,55,0.00,,,0.00,WeatherCatV1.14B232,2013-03-21 00:57:00,
2013-03-20 19:02:00,44.2,29.5,30.05,North,357,1.0,1.0,56,0.00,,,0.00,WeatherCatV1.14B232,2013-03-21 01:02:00,
2013-03-20 19:07:00,44.2,29.9,30.05,WNW,301,0.0,2.0,57,0.00,,,0.00,WeatherCatV1.14B232,2013-03-21 01:07:00,
2013-03-20 19:12:00,43.9,30.5,30.05,West,278,1.0,2.0,59,0.00,,,0.00,WeatherCatV1.14B232,2013-03-21 01:12:00,
2013-03-20 19:17:00,43.6,30.6,30.05,SW,225,1.0,2.0,60,0.00,,,0.00,WeatherCatV1.14B232,2013-03-21 01:17:00,
2013-03-20 19:22:00,43.1,31.0,30.05,NW,318,0.0,3.0,62,0.00,,,0.00,WeatherCatV1.14B232,2013-03-21 01:22:00,
2013-03-20 19:27:00,42.8,31.5,30.06,NNW,342,1.0,3.0,64,0.00,,,0.00,WeatherCatV1.14B232,2013-03-21 01:27:00,
2013-03-20 19:32:00,42.5,31.2,30.05,NNW,328,1.0,2.0,64,0.00,,,0.00,WeatherCatV1.14B232,2013-03-21 01:32:00,
2013-03-20 19:37:00,42.3,31.4,30.05,NNW,340,2.0,3.0,65,0.00,,,0.00,WeatherCatV1.14B232,2013-03-21 01:37:00,
2013-03-20 19:42:00,42.0,31.5,30.05,WNW,290,1.0,4.0,66,0.00,,,0.00,WeatherCatV1.14B232,2013-03-21 01:42:00,
2013-03-20 19:47:00,41.7,31.6,30.05,NW,310,2.0,2.0,67,0.00,,,0.00,WeatherCatV1.14B232,2013-03-21 01:47:00,
2013-03-20 19:52:00,41.2,31.8,30.04,NNE,15,1.0,1.0,69,0.00,,,0.00,WeatherCatV1.14B232,2013-03-21 01:52:00,
2013-03-20 19:57:00,40.7,32.0,30.04,WNW,283,2.0,3.0,71,0.00,,,0.00,WeatherCatV1.14B232,2013-03-21 01:57:00,
2013-03-20 20:02:00,40.2,31.9,30.04,NNW,330,1.0,3.0,72,0.00,,,0.00,WeatherCatV1.14B232,2013-03-21 02:02:00,
2013-03-20 20:07:00,39.7,32.1,30.04,WSW,249,3.0,3.0,74,0.00,,,0.00,WeatherCatV1.14B232,2013-03-21 02:07:00,
2013-03-20 20:12:00,39.2,32.3,30.04,NNW,329,2.0,2.0,76,0.00,,,0.00,WeatherCatV1.14B232,2013-03-21 02:12:00,
2013-03-20 20:17:00,38.8,32.2,30.04,WNW,284,2.0,3.0,77,0.00,,,0.00,WeatherCatV1.14B232,2013-03-21 02:17:00,
2013-03-20 20:22:00,38.5,32.2,30.03,NW,311,1.0,3.0,78,0.00,,,0.00,WeatherCatV1.14B232,2013-03-21 02:22:00,
2013-03-20 20:27:00,38.3,32.1,30.04,West,280,1.0,2.0,78,0.00,,,0.00,WeatherCatV1.14B232,2013-03-21 02:27:00,
2013-03-20 20:32:00,38.1,31.9,30.04,North,359,2.0,2.0,78,0.00,,,0.00,WeatherCatV1.14B232,2013-03-21 02:32:00,
2013-03-20 20:37:00,37.9,31.7,30.03,WNW,298,0.0,2.0,78,0.00,,,0.00,WeatherCatV1.14B232,2013-03-21 02:37:00,
2013-03-20 20:42:00,37.5,31.6,30.04,SSE,166,2.0,5.0,79,0.00,,,0.00,WeatherCatV1.14B232,2013-03-21 02:42:00,
2013-03-20 20:47:00,37.4,31.5,30.03,NW,307,1.0,2.0,79,0.00,,,0.00,WeatherCatV1.14B232,2013-03-21 02:47:00,
2013-03-20 20:52:00,37.4,31.5,30.03,WNW,285,1.0,2.0,79,0.00,,,0.00,WeatherCatV1.14B232,2013-03-21 02:52:00,
2013-03-20 20:57:00,37.2,31.3,30.03,SSE,158,0.0,1.0,79,0.00,,,0.00,WeatherCatV1.14B232,2013-03-21 02:57:00,
2013-03-20 21:02:00,36.8,31.2,30.04,NE,44,0.0,0.0,80,0.00,,,0.00,WeatherCatV1.14B232,2013-03-21 03:02:00,
2013-03-20 21:07:00,36.5,31.2,30.04,SSE,159,2.0,3.0,81,0.00,,,0.00,WeatherCatV1.14B232,2013-03-21 03:07:00,
2013-03-20 21:12:00,36.4,30.8,30.03,SSW,205,2.0,4.0,80,0.00,,,0.00,WeatherCatV1.14B232,2013-03-21 03:12:00,
2013-03-20 21:17:00,36.0,30.4,30.03,WSW,246,0.0,0.0,80,0.00,,,0.00,WeatherCatV1.14B232,2013-03-21 03:17:00,
2013-03-20 21:22:00,35.7,30.1,30.03,SSW,193,0.0,0.0,80,0.00,,,0.00,WeatherCatV1.14B232,2013-03-21 03:22:00,
2013-03-20 21:27:00,35.5,30.0,30.03,SSW,210,0.0,1.0,80,0.00,,,0.00,WeatherCatV1.14B232,2013-03-21 03:27:00,
2013-03-20 21:32:00,35.4,30.2,30.03,ESE,115,0.0,1.0,81,0.00,,,0.00,WeatherCatV1.14B232,2013-03-21 03:32:00,
2013-03-20 21:37:00,35.2,29.7,30.03,NW,311,0.0,1.0,80,0.00,,,0.00,WeatherCatV1.14B232,2013-03-21 03:37:00,
2013-03-20 21:42:00,35.0,29.8,30.03,North,350,0.0,0.0,81,0.00,,,0.00,WeatherCatV1.14B232,2013-03-21 03:42:00,
2013-03-20 21:47:00,34.9,30.0,30.03,East,92,0.0,1.0,82,0.00,,,0.00,WeatherCatV1.14B232,2013-03-21 03:47:00,
2013-03-20 21:52:00,34.8,29.9,30.02,East,93,0.0,0.0,82,0.00,,,0.00,WeatherCatV1.14B232,2013-03-21 03:52:00,
2013-03-20 21:57:00,34.5,29.9,30.02,East,93,0.0,0.0,83,0.00,,,0.00,WeatherCatV1.14B232,2013-03-21 03:57:00,
2013-03-20 22:00:00,34.3,29.7,30.02,East,93,0.0,1.0,83,0.00,,,0.00,WeatherCatV1.14B232,2013-03-21 04:00:00,
2013-03-20 22:01:00,34.2,29.9,30.02,East,93,0.0,0.0,84,0.00,,,0.00,WeatherCatV1.14B232,2013-03-21 04:01:00,
2013-03-20 22:06:00,33.9,29.6,30.02,East,93,0.0,0.0,84,0.00,,,0.00,WeatherCatV1.14B232,2013-03-21 04:06:00,
2013-03-20 22:11:00,33.6,29.3,30.02,East,93,0.0,0.0,84,0.00,,,0.00,WeatherCatV1.14B232,2013-03-21 04:11:00,
2013-03-20 22:16:00,33.2,29.2,30.02,East,94,0.0,0.0,85,0.00,,,0.00,WeatherCatV1.14B232,2013-03-21 04:16:00,
2013-03-20 22:21:00,32.9,29.2,30.02,East,94,0.0,1.0,86,0.00,,,0.00,WeatherCatV1.14B232,2013-03-21 04:21:00,
2013-03-20 22:26:00,32.9,29.2,30.02,North,349,0.0,0.0,86,0.00,,,0.00,WeatherCatV1.14B232,2013-03-21 04:26:00,
2013-03-20 22:31:00,32.8,29.4,30.02,North,349,0.0,0.0,87,0.00,,,0.00,WeatherCatV1.14B232,2013-03-21 04:31:00,
2013-03-20 22:36:00,32.6,29.2,30.01,North,349,0.0,0.0,87,0.00,,,0.00,WeatherCatV1.14B232,2013-03-21 04:36:00,
2013-03-20 22:41:00,32.5,28.8,30.01,North,349,0.0,0.0,86,0.00,,,0.00,WeatherCatV1.14B232,2013-03-21 04:41:00,
2013-03-20 22:46:00,32.3,28.9,30.01,SSE,160,0.0,0.0,87,0.00,,,0.00,WeatherCatV1.14B232,2013-03-21 04:46:00,
2013-03-20 22:51:00,32.1,28.7,30.00,SE,127,0.0,1.0,87,0.00,,,0.00,WeatherCatV1.14B232,2013-03-21 04:51:00,
2013-03-20 22:56:00,32.1,28.7,30.00,South,169,0.0,0.0,87,0.00,,,0.00,WeatherCatV1.14B232,2013-03-21 04:56:00,
2013-03-20 23:01:00,32.0,28.9,30.00,ENE,57,0.0,0.0,88,0.00,,,0.00,WeatherCatV1.14B232,2013-03-21 05:01:00,
2013-03-20 23:06:00,32.0,28.9,30.00,SSE,158,1.0,1.0,88,0.00,,,0.00,WeatherCatV1.14B232,2013-03-21 05:06:00,
2013-03-20 23:11:00,32.0,28.9,30.00,SW,233,0.0,1.0,88,0.00,,,0.00,WeatherCatV1.14B232,2013-03-21 05:11:00,
2013-03-20 23:16:00,31.7,28.6,29.99,SE,142,0.0,1.0,88,0.00,,,0.00,WeatherCatV1.14B232,2013-03-21 05:16:00,
2013-03-20 23:21:00,31.4,28.5,29.99,SE,142,0.0,0.0,89,0.00,,,0.00,WeatherCatV1.14B232,2013-03-21 05:21:00,
2013-03-20 23:26:00,31.1,28.0,29.99,SE,142,0.0,0.0,88,0.00,,,0.00,WeatherCatV1.14B232,2013-03-21 05:26:00,
2013-03-20 23:31:00,30.8,27.9,29.99,SE,143,0.0,1.0,89,0.00,,,0.00,WeatherCatV1.14B232,2013-03-21 05:31:00,
2013-03-20 23:36:00,30.6,27.8,29.98,SE,143,0.0,0.0,89,0.00,,,0.00,WeatherCatV1.14B232,2013-03-21 05:36:00,
2013-03-20 23:41:00,30.3,27.7,29.98,SE,143,0.0,1.0,90,0.00,,,0.00,WeatherCatV1.14B232,2013-03-21 05:41:00,
2013-03-20 23:46:00,30.1,27.8,29.98,SE,144,0.0,0.0,91,0.00,,,0.00,WeatherCatV1.14B232,2013-03-21 05:46:00,
2013-03-20 23:51:00,30.0,27.7,29.98,NNE,13,0.0,1.0,91,0.00,,,0.00,WeatherCatV1.14B232,2013-03-21 05:51:00,
2013-03-20 23:56:00,30.2,27.9,29.98,NNE,19,0.0,0.0,91,0.00,,,0.00,WeatherCatV1.14B232,2013-03-21 05:56:00,